WL7CLI Weather Reports


time (UTC)temp
C
wind
direction
speed
KPH
gust
KPH
rain 1hr
cm
rain 24hr
cm
rain mn
cm
humidity
%
barometer
mb
20260507122825 7 182 0.0 0.0 0.00 0.00 0.00 62 1012.8
20260507115825 7 183 0.0 0.0 0.00 0.00 0.00 61 1012.5
20260507112825 7 188 0.0 9.7 0.00 0.00 0.00 59 1012.3
20260507105825 7 129 0.0 9.7 0.00 0.00 0.00 56 1012.4
20260507102825 7 184 0.0 3.2 0.00 0.00 0.00 58 1012.6
20260507095825 7 173 0.0 9.7 0.00 0.00 0.00 56 1013.0
20260507092825 7 180 0.0 9.7 0.00 0.00 0.00 54 1013.7
20260507085825 7 339 0.0 0.0 0.00 0.00 0.00 58 1014.0
20260507082824 6 339 0.0 0.0 0.00 0.00 0.00 59 1014.2
20260507075825 6 339 0.0 0.0 0.00 0.00 0.00 59 1014.5
20260507072825 6 339 0.0 0.0 0.00 0.00 0.00 59 1014.6
20260507065824 6 339 0.0 0.0 0.00 0.00 0.00 59 1014.9
20260507062825 5 339 0.0 0.0 0.00 0.00 0.00 62 1015.0
20260507055825 6 339 0.0 0.0 0.00 0.00 0.00 61 1015.1
20260507052825 6 339 0.0 0.0 0.00 0.00 0.00 58 1015.4
20260507045825 6 339 0.0 0.0 0.00 0.00 0.00 60 1015.6
20260507042825 6 339 0.0 0.0 0.00 0.00 0.00 56 1015.5
20260507035825 6 339 0.0 0.0 0.00 0.00 0.00 55 1015.7
20260507032825 7 339 0.0 0.0 0.00 0.00 0.00 53 1015.9
20260507025825 7 339 0.0 0.0 0.00 0.00 0.00 48 1016.0
20260507022825 8 339 0.0 0.0 0.00 0.00 0.00 47 1015.9
20260507015824 10 339 0.0 0.0 0.00 0.00 0.00 41 1015.8
20260507012824 11 339 0.0 9.7 0.00 0.00 0.00 37 1015.8
20260507005824 12 340 3.2 27.4 0.00 0.00 0.00 33 1015.8
20260507002825 13 336 9.7 37.0 0.00 0.00 0.00 31 1015.7
20260506235825 13 281 9.7 30.6 0.00 0.00 0.00 31 1016.0
20260506232824 14 346 20.9 33.8 0.00 0.00 0.00 32 1016.0
20260506225825 13 30 3.2 24.1 0.00 0.00 0.00 34 1016.3
20260506222825 13 349 12.9 37.0 0.00 0.00 0.00 33 1016.2
20260506215825 13 306 6.4 33.8 0.00 0.00 0.00 33 1016.4
20260506212825 13 296 6.4 37.0 0.00 0.00 0.00 35 1016.4
20260506205824 14 338 0.0 37.0 0.00 0.00 0.00 35 1016.7
20260506202825 13 344 12.9 30.6 0.00 0.00 0.00 39 1016.8
20260506195824 14 5 3.2 40.2 0.00 0.00 0.00 35 1017.2
20260506192824 13 276 9.7 40.2 0.00 0.00 0.00 36 1017.1
20260506185825 13 308 24.1 33.8 0.00 0.00 0.00 33 1017.3
20260506182824 12 315 12.9 30.6 0.00 0.00 0.00 35 1017.5
20260506175824 12 309 6.4 33.8 0.00 0.00 0.00 39 1017.8
20260506172824 11 336 9.7 33.8 0.00 0.00 0.00 40 1018.1
20260506165824 11 317 3.2 20.9 0.00 0.00 0.00 40 1018.2
20260506162824 11 344 9.7 30.6 0.00 0.00 0.00 39 1018.2
20260506155824 11 344 6.4 37.0 0.00 0.00 0.00 43 1017.9
20260506152825 10 327 3.2 37.0 0.00 0.00 0.00 45 1018.1
20260506145825 9 313 6.4 17.7 0.00 0.00 0.00 45 1017.8
20260506142825 8 308 0.0 12.9 0.00 0.00 0.00 45 1018.1
20260506135825 7 307 3.2 17.7 0.00 0.00 0.00 51 1017.7
20260506132824 7 306 0.0 9.7 0.00 0.00 0.00 55 1017.4
20260506125824 6 306 0.0 9.7 0.00 0.00 0.00 58 1017.2